| time (UTC) | temp C | wind direction | speed KPH | gust KPH | rain 1hr cm | rain 24hr cm | rain mn cm | humidity % | barometer mb |
| 20260504001051 | 10 | 192 | 0.0 | 0.0 | 0.00 | 0.00 | 0.00 | 69 | 1013.7 |
| 20260503235027 | 11 | 190 | 0.0 | 0.0 | 0.00 | 0.00 | 0.00 | 70 | 1013.8 |
| 20260503234027 | 11 | 186 | 0.0 | 0.0 | 0.00 | 0.00 | 0.00 | 66 | 1013.8 |
| 20260503233017 | 11 | 198 | 0.0 | 0.0 | 0.00 | 0.00 | 0.00 | 68 | 1013.8 |
| 20260503232014 | 11 | 186 | 1.6 | 1.6 | 0.00 | 0.00 | 0.00 | 71 | 1013.8 |
| 20260503231002 | 11 | 198 | 1.6 | 1.6 | 0.00 | 0.00 | 0.00 | 72 | 1013.8 |
| 20260503225949 | 12 | 192 | 1.6 | 1.6 | 0.00 | 0.00 | 0.00 | 70 | 1013.8 |
| 20260503224938 | 12 | 180 | 3.2 | 3.2 | 0.00 | 0.00 | 0.00 | 68 | 1013.8 |
| 20260503223924 | 12 | 186 | 1.6 | 1.6 | 0.00 | 0.00 | 0.00 | 69 | 1013.8 |
| 20260503222911 | 12 | 192 | 3.2 | 3.2 | 0.00 | 0.00 | 0.00 | 69 | 1013.9 |
| 20260503221859 | 12 | 183 | 3.2 | 3.2 | 0.00 | 0.00 | 0.00 | 68 | 1013.9 |
| 20260503220847 | 13 | 180 | 3.2 | 3.2 | 0.00 | 0.00 | 0.00 | 68 | 1013.9 |
| 20260503215834 | 13 | 189 | 3.2 | 3.2 | 0.00 | 0.00 | 0.00 | 67 | 1013.9 |
| 20260503214835 | 13 | 184 | 1.6 | 1.6 | 0.00 | 0.00 | 0.00 | 65 | 1013.9 |
| 20260503213821 | 13 | 192 | 0.0 | 0.0 | 0.00 | 0.00 | 0.00 | 64 | 1013.9 |
| 20260503212821 | 13 | 191 | 0.0 | 0.0 | 0.00 | 0.00 | 0.00 | 63 | 1013.8 |
| 20260503211809 | 13 | 206 | 1.6 | 1.6 | 0.00 | 0.00 | 0.00 | 62 | 1013.8 |
| 20260503210756 | 14 | 204 | 0.0 | 0.0 | 0.00 | 0.00 | 0.00 | 59 | 1013.8 |
| 20260503205756 | 15 | 204 | 0.0 | 0.0 | 0.00 | 0.00 | 0.00 | 56 | 1013.8 |
| 20260503204744 | 15 | 186 | 1.6 | 1.6 | 0.00 | 0.00 | 0.00 | 55 | 1013.8 |
| 20260503203732 | 15 | 179 | 3.2 | 3.2 | 0.00 | 0.00 | 0.00 | 54 | 1013.8 |
| 20260503202733 | 15 | 184 | 3.2 | 3.2 | 0.00 | 0.00 | 0.00 | 52 | 1013.8 |
| 20260503201719 | 15 | 189 | 0.0 | 0.0 | 0.00 | 0.00 | 0.00 | 54 | 1013.7 |
| 20260503200707 | 16 | 185 | 3.2 | 3.2 | 0.00 | 0.00 | 0.00 | 52 | 1013.7 |
| 20260503195707 | 16 | 190 | 0.0 | 0.0 | 0.00 | 0.00 | 0.00 | 49 | 1013.8 |
| 20260503194655 | 17 | 193 | 0.0 | 0.0 | 0.00 | 0.00 | 0.00 | 48 | 1013.8 |
| 20260503193654 | 17 | 192 | 0.0 | 0.0 | 0.00 | 0.00 | 0.00 | 48 | 1013.8 |
| 20260503192642 | 17 | 197 | 0.0 | 0.0 | 0.00 | 0.00 | 0.00 | 46 | 1013.8 |
| 20260503191629 | 17 | 197 | 0.0 | 0.0 | 0.00 | 0.00 | 0.00 | 44 | 1013.6 |
| 20260503190616 | 18 | 197 | 0.0 | 0.0 | 0.00 | 0.00 | 0.00 | 43 | 1013.6 |
| 20260503185604 | 18 | 197 | 0.0 | 0.0 | 0.00 | 0.00 | 0.00 | 41 | 1013.6 |
| 20260503184604 | 19 | 197 | 0.0 | 0.0 | 0.00 | 0.00 | 0.00 | 40 | 1013.5 |
| 20260503183552 | 20 | 197 | 0.0 | 0.0 | 0.00 | 0.00 | 0.00 | 38 | 1013.5 |
| 20260503182551 | 20 | 197 | 0.0 | 0.0 | 0.00 | 0.00 | 0.00 | 37 | 1013.5 |
| 20260503181551 | 21 | 198 | 0.0 | 0.0 | 0.00 | 0.00 | 0.00 | 35 | 1013.4 |
| 20260503180539 | 21 | 198 | 0.0 | 0.0 | 0.00 | 0.00 | 0.00 | 33 | 1013.4 |
| 20260503175527 | 22 | 196 | 0.0 | 0.0 | 0.00 | 0.00 | 0.00 | 32 | 1013.3 |
| 20260503174514 | 22 | 198 | 0.0 | 0.0 | 0.00 | 0.00 | 0.00 | 32 | 1013.2 |
| 20260503173502 | 23 | 180 | 3.2 | 3.2 | 0.00 | 0.00 | 0.00 | 30 | 1013.2 |
| 20260503172502 | 23 | 205 | 0.0 | 0.0 | 0.00 | 0.00 | 0.00 | 30 | 1013.2 |
| 20260503171449 | 23 | 193 | 4.8 | 4.8 | 0.00 | 0.00 | 0.00 | 29 | 1013.2 |
| 20260503170449 | 23 | 198 | 1.6 | 1.6 | 0.00 | 0.00 | 0.00 | 28 | 1013.2 |
| 20260503150333 | 25 | 187 | 9.7 | 9.7 | 0.00 | 0.00 | 0.00 | 24 | 1013.6 |
| 20260503131128 | 26 | 150 | 6.4 | 6.4 | 0.00 | 0.00 | 0.00 | 24 | 1015.0 |
| 20260503130128 | 26 | 210 | 9.7 | 12.9 | 0.00 | 0.00 | 0.00 | 25 | 1015.1 |
| 20260503080820 | 20 | 191 | 4.8 | 4.8 | 0.00 | 0.00 | 0.00 | 39 | 1017.6 |
| 20260503072807 | 18 | 182 | 4.8 | 4.8 | 0.00 | 0.00 | 0.00 | 40 | 1017.7 |
| 20260503071754 | 18 | 190 | 6.4 | 6.4 | 0.00 | 0.00 | 0.00 | 42 | 1017.7 |
| 20260503054652 | 12 | 203 | 1.6 | 1.6 | 0.00 | 0.00 | 0.00 | 61 | 1018.1 |
| 20260503053652 | 11 | 186 | 3.2 | 3.2 | 0.00 | 0.00 | 0.00 | 65 | 1018.1 |
| 20260503052639 | 10 | 186 | 1.6 | 1.6 | 0.00 | 0.00 | 0.00 | 68 | 1018.2 |
| 20260503051639 | 10 | 186 | 1.6 | 1.6 | 0.00 | 0.00 | 0.00 | 73 | 1018.2 |
| 20260503050630 | 8 | 204 | 0.0 | 0.0 | 0.00 | 0.00 | 0.00 | 76 | 1018.2 |
| 20260503045614 | 7 | 216 | 0.0 | 0.0 | 0.00 | 0.00 | 0.00 | 79 | 1018.3 |
| 20260503044602 | 7 | 216 | 0.0 | 0.0 | 0.00 | 0.00 | 0.00 | 80 | 1018.4 |
| 20260503043549 | 7 | 216 | 0.0 | 0.0 | 0.00 | 0.00 | 0.00 | 82 | 1018.4 |
| 20260503042549 | 6 | 216 | 0.0 | 0.0 | 0.00 | 0.00 | 0.00 | 84 | 1018.2 |
| 20260503041537 | 6 | 216 | 0.0 | 0.0 | 0.00 | 0.00 | 0.00 | 85 | 1018.2 |
| 20260503040524 | 5 | 216 | 0.0 | 0.0 | 0.00 | 0.00 | 0.00 | 87 | 1018.2 |
| 20260503035524 | 5 | 216 | 0.0 | 0.0 | 0.00 | 0.00 | 0.00 | 88 | 1018.2 |
| 20260503034512 | 5 | 216 | 0.0 | 0.0 | 0.00 | 0.00 | 0.00 | 88 | 1018.2 |
| 20260503033511 | 5 | 216 | 0.0 | 0.0 | 0.00 | 0.00 | 0.00 | 88 | 1018.3 |
| 20260503032503 | 5 | 216 | 0.0 | 0.0 | 0.00 | 0.00 | 0.00 | 87 | 1018.2 |
| 20260503031459 | 5 | 216 | 0.0 | 0.0 | 0.00 | 0.00 | 0.00 | 87 | 1018.2 |
| 20260503030500 | 5 | 210 | 0.0 | 0.0 | 0.00 | 0.00 | 0.00 | 87 | 1018.2 |
| 20260503025459 | 5 | 204 | 0.0 | 0.0 | 0.00 | 0.00 | 0.00 | 87 | 1018.2 |
| 20260503024459 | 5 | 204 | 0.0 | 0.0 | 0.00 | 0.00 | 0.00 | 86 | 1018.1 |
| 20260503023447 | 5 | 204 | 0.0 | 0.0 | 0.00 | 0.00 | 0.00 | 86 | 1018.2 |
| 20260503022435 | 5 | 204 | 0.0 | 0.0 | 0.00 | 0.00 | 0.00 | 86 | 1018.2 |
| 20260503021421 | 6 | 204 | 0.0 | 0.0 | 0.00 | 0.00 | 0.00 | 84 | 1018.2 |
| 20260503020409 | 6 | 204 | 0.0 | 0.0 | 0.00 | 0.00 | 0.00 | 83 | 1018.3 |
| 20260503015409 | 6 | 204 | 0.0 | 0.0 | 0.00 | 0.00 | 0.00 | 83 | 1018.4 |
| 20260503014357 | 7 | 204 | 0.0 | 0.0 | 0.00 | 0.00 | 0.00 | 81 | 1018.4 |
| 20260503013357 | 7 | 204 | 0.0 | 0.0 | 0.00 | 0.00 | 0.00 | 82 | 1018.5 |
| 20260503012356 | 7 | 204 | 0.0 | 0.0 | 0.00 | 0.00 | 0.00 | 81 | 1018.4 |
| 20260503011344 | 7 | 204 | 0.0 | 0.0 | 0.00 | 0.00 | 0.00 | 81 | 1018.4 |
| 20260503010332 | 7 | 204 | 0.0 | 0.0 | 0.00 | 0.00 | 0.00 | 80 | 1018.3 |
| 20260503005322 | 7 | 204 | 0.0 | 0.0 | 0.00 | 0.00 | 0.00 | 80 | 1018.4 |
| 20260503004307 | 7 | 204 | 0.0 | 0.0 | 0.00 | 0.00 | 0.00 | 80 | 1018.5 |
| 20260503003254 | 7 | 204 | 0.0 | 0.0 | 0.00 | 0.00 | 0.00 | 79 | 1018.4 |
| 20260503002254 | 7 | 204 | 0.0 | 0.0 | 0.00 | 0.00 | 0.00 | 79 | 1018.5 |